YACHTS Weather Reports


Display with metric or nautical units.
time (UTC)temp
F
wind
direction
speed
MPH
gust
MPH
rain 1hr
in
rain 24hr
in
rain mn
in
humidity
%
barometer
mb
20260831024544 60 113 0.0 7.0 0.00 0.01 0.01 82 1014.9
20260831024031 60 15 2.0 7.0 0.00 0.01 0.01 82 1014.9
20260831023518 61 0 0.0 6.0 0.00 0.01 0.01 82 1014.9
20260831023005 61 0 2.0 11.0 0.00 0.01 0.01 82 1014.9
20260831022452 61 64 3.0 11.0 0.00 0.01 0.01 82 1014.9
20260831021939 62 0 3.0 11.0 0.00 0.01 0.01 81 1015.0
20260831021426 62 91 3.0 10.0 0.00 0.01 0.01 82 1015.1
20260831020913 61 50 5.0 15.0 0.00 0.01 0.01 81 1015.1
20260831020400 62 308 2.0 15.0 0.00 0.01 0.01 81 1015.1
20260831015846 62 100 3.0 15.0 0.00 0.01 0.01 81 1015.1
20260831015335 62 54 7.0 14.0 0.00 0.01 0.01 81 1015.2
20260831014820 62 329 5.0 14.0 0.00 0.01 0.01 81 1015.3
20260831013754 63 22 3.0 14.0 0.00 0.01 0.01 81 1015.4
20260831013241 63 161 3.0 14.0 0.00 0.01 0.01 81 1015.4
20260831012728 62 334 6.0 14.0 0.00 0.01 0.01 81 1015.5
20260831012216 62 169 3.0 16.0 0.00 0.01 0.01 81 1015.5
20260831011702 62 77 4.0 16.0 0.00 0.01 0.01 81 1015.6
20260831010636 63 70 1.0 15.0 0.00 0.01 0.01 80 1015.8
20260831010123 63 36 6.0 15.0 0.00 0.01 0.01 80 1015.9
20260831005610 63 4 6.0 15.0 0.00 0.01 0.01 80 1015.9
20260831005057 63 152 6.0 10.0 0.00 0.01 0.01 79 1016.0
20260831004544 63 26 7.0 13.0 0.00 0.01 0.01 79 1016.1
20260831004031 63 40 4.0 13.0 0.00 0.01 0.01 79 1016.2
20260831003518 63 336 5.0 13.0 0.00 0.01 0.01 79 1016.2
20260831003005 64 320 6.0 13.0 0.00 0.01 0.01 78 1016.3
20260831002452 64 60 7.0 13.0 0.00 0.01 0.01 77 1016.3
20260831001939 64 0 4.0 13.0 0.00 0.01 0.01 78 1016.3
20260831001426 64 127 4.0 11.0 0.00 0.01 0.01 78 1016.3
20260831000913 64 96 6.0 10.0 0.00 0.01 0.01 78 1016.4
20260831000402 64 285 8.0 16.0 0.00 0.01 0.01 78 1016.6
20260830234821 64 47 2.0 11.0 0.00 0.01 0.01 77 1016.6
20260830234310 64 310 5.0 14.0 0.00 0.01 0.01 76 1016.7
20260830233755 64 81 4.0 14.0 0.00 0.01 0.01 76 1016.7
20260830233242 64 135 7.0 14.0 0.00 0.01 0.01 76 1016.8
20260830232729 64 106 6.0 11.0 0.00 0.01 0.01 76 1016.9
20260830232217 64 36 2.0 17.0 0.00 0.01 0.01 77 1016.9
20260830231703 64 28 5.0 17.0 0.00 0.01 0.01 77 1017.1
20260830230637 64 357 5.0 16.0 0.00 0.01 0.01 77 1017.2
20260830230124 64 110 7.0 16.0 0.00 0.01 0.01 77 1017.2
20260830225058 64 53 2.0 15.0 0.00 0.01 0.01 77 1017.3
20260830224545 64 57 7.0 14.0 0.00 0.01 0.01 77 1017.3
20260830223519 64 40 5.0 14.0 0.00 0.01 0.01 76 1017.5
20260830223006 64 46 6.0 12.0 0.00 0.01 0.01 76 1017.6
20260830222453 64 12 5.0 14.0 0.00 0.01 0.01 76 1017.7
20260830221940 64 43 6.0 14.0 0.00 0.01 0.01 75 1017.7
20260830221427 65 109 1.0 14.0 0.00 0.01 0.01 75 1017.8
20260830220401 64 145 4.0 14.0 0.00 0.01 0.01 75 1018.0
20260830215335 65 352 6.0 11.0 0.00 0.01 0.01 75 1018.2
20260830214822 65 28 5.0 16.0 0.00 0.01 0.01 75 1018.2
20260830214310 64 47 7.0 16.0 0.00 0.01 0.01 75 1018.3
20260830213757 64 67 7.0 16.0 0.00 0.01 0.01 75 1018.3
20260830213243 64 71 1.0 12.0 0.00 0.01 0.01 76 1018.4
20260830212730 64 9 6.0 12.0 0.00 0.01 0.01 76 1018.5
20260830212217 64 357 3.0 12.0 0.00 0.01 0.01 77 1018.6
20260830211704 64 107 4.0 12.0 0.00 0.01 0.01 77 1018.6
20260830211151 64 319 5.0 12.0 0.00 0.01 0.01 78 1018.7
20260830210638 64 357 1.0 14.0 0.00 0.01 0.01 78 1018.7
20260830210125 64 40 5.0 14.0 0.00 0.01 0.01 78 1018.6
20260830205612 64 284 2.0 14.0 0.00 0.01 0.01 79 1018.7
20260830205059 63 299 7.0 14.0 0.00 0.01 0.01 79 1018.7
20260830204546 63 56 3.0 14.0 0.00 0.01 0.01 79 1018.8
20260830204033 63 357 5.0 14.0 0.00 0.01 0.01 79 1018.8
20260830203520 64 75 3.0 10.0 0.00 0.01 0.01 78 1018.9
20260830203007 63 119 1.0 9.0 0.00 0.01 0.01 79 1018.9
20260830202454 63 196 1.0 9.0 0.00 0.01 0.01 80 1018.9
20260830201941 63 319 6.0 13.0 0.00 0.01 0.01 78 1018.9
20260830201428 63 79 5.0 13.0 0.00 0.01 0.01 79 1018.9
20260830200915 63 7 3.0 13.0 0.00 0.01 0.01 79 1018.9
20260830200402 62 345 4.0 8.0 0.00 0.01 0.01 80 1018.9
20260830195849 63 25 3.0 13.0 0.00 0.01 0.01 79 1019.0
20260830195337 63 40 5.0 13.0 0.00 0.01 0.01 79 1019.0
20260830194823 63 4 6.0 13.0 0.00 0.01 0.01 79 1019.0
20260830194310 63 72 4.0 10.0 0.00 0.01 0.01 78 1019.0
20260830193757 64 324 3.0 10.0 0.00 0.01 0.01 79 1019.1
20260830193244 64 15 4.0 10.0 0.00 0.01 0.01 79 1019.2
20260830192731 64 37 3.0 9.0 0.00 0.01 0.01 79 1019.2
20260830192218 64 319 5.0 9.0 0.00 0.01 0.01 79 1019.3
20260830191705 64 292 4.0 10.0 0.00 0.01 0.01 80 1019.4
20260830191152 64 303 3.0 10.0 0.00 0.01 0.01 81 1019.3
20260830190639 64 298 6.0 10.0 0.00 0.01 0.01 80 1019.3
20260830190126 64 60 2.0 10.0 0.00 0.01 0.01 82 1019.3
20260830185613 64 319 4.0 9.0 0.00 0.01 0.01 82 1019.4
20260830185100 63 21 4.0 9.0 0.00 0.01 0.01 84 1019.5
20260830184547 63 51 4.0 9.0 0.00 0.01 0.01 85 1019.6
20260830184034 63 270 5.0 9.0 0.00 0.01 0.01 85 1019.6
20260830183521 63 0 3.0 9.0 0.00 0.01 0.01 87 1019.6
20260830183008 62 326 5.0 10.0 0.00 0.01 0.01 87 1019.6
20260830182455 62 295 5.0 10.0 0.00 0.01 0.01 87 1019.6
20260830181942 62 289 4.0 10.0 0.00 0.01 0.01 88 1019.7
20260830180916 62 303 3.0 10.0 0.00 0.01 0.01 89 1019.6
20260830180403 61 316 5.0 9.0 0.00 0.01 0.01 90 1019.7
20260830175850 61 316 5.0 9.0 0.00 0.01 0.01 90 1019.7
20260830175337 61 305 2.0 9.0 0.00 0.01 0.01 91 1019.7
20260830174824 61 331 2.0 9.0 0.00 0.01 0.01 91 1019.7
20260830174311 61 12 5.0 8.0 0.00 0.01 0.01 91 1019.7
20260830173758 60 354 2.0 8.0 0.00 0.01 0.01 91 1019.7
20260830173245 60 323 2.0 8.0 0.00 0.01 0.01 92 1019.7
20260830172732 58 302 4.0 6.0 0.00 0.01 0.01 92 1019.8
20260830172219 58 271 4.0 6.0 0.00 0.01 0.01 92 1019.8
20260830171706 58 315 2.0 7.0 0.00 0.01 0.01 93 1019.8
20260830171153 58 0 0.0 7.0 0.00 0.01 0.01 93 1019.9
20260830170640 57 309 0.0 7.0 0.00 0.01 0.01 93 1020.0
20260830170127 57 294 5.0 7.0 0.00 0.01 0.01 93 1019.9
20260830165614 56 0 0.0 0.0 0.00 0.01 0.01 93 1019.9
20260830165101 55 0 0.0 0.0 0.00 0.01 0.01 94 1020.0
20260830164548 55 0 0.0 0.0 0.00 0.01 0.01 94 1020.0
20260830164035 55 0 0.0 0.0 0.00 0.01 0.01 94 1020.0
20260830163522 55 0 0.0 0.0 0.00 0.01 0.01 94 1020.0
20260830163009 54 0 0.0 0.0 0.00 0.01 0.01 94 1020.1
20260830162456 54 0 0.0 0.0 0.00 0.01 0.01 94 1020.1
20260830161943 54 0 0.0 0.0 0.00 0.01 0.01 94 1020.1
20260830161430 53 0 0.0 0.0 0.00 0.01 0.01 95 1020.2
20260830160917 53 0 0.0 0.0 0.01 0.01 0.01 95 1020.2
20260830160404 53 0 0.0 0.0 0.01 0.01 0.01 95 1020.2
20260830155851 53 0 0.0 0.0 0.01 0.01 0.01 95 1020.2
20260830155338 53 0 0.0 0.0 0.01 0.01 0.01 95 1020.2
20260830154825 53 0 0.0 0.0 0.01 0.01 0.01 95 1020.1
20260830154312 53 0 0.0 0.0 0.01 0.01 0.01 95 1020.1
20260830153759 52 0 0.0 0.0 0.01 0.01 0.01 95 1020.1
20260830153246 52 0 0.0 0.0 0.01 0.01 0.01 95 1020.1
20260830152733 51 0 0.0 0.0 0.01 0.01 0.01 95 1020.2
20260830152220 51 0 0.0 0.0 0.01 0.01 0.01 96 1020.2
20260830151707 51 0 0.0 0.0 0.01 0.01 0.01 96 1020.2
20260830151154 51 0 0.0 0.0 0.01 0.01 0.01 96 1020.2
20260830150641 50 0 0.0 0.0 0.00 0.01 0.01 96 1020.3
20260830150128 50 0 0.0 0.0 0.00 0.00 0.00 96 1020.3
20260830145615 49 0 0.0 0.0 0.00 0.00 0.00 96 1020.3
20260830145102 49 0 0.0 0.0 0.00 0.00 0.00 95 1020.3
20260830144549 49 0 0.0 0.0 0.00 0.00 0.00 96 1020.4
20260830144036 49 0 0.0 0.0 0.00 0.00 0.00 96 1020.4
20260830143523 48 0 0.0 0.0 0.00 0.00 0.00 96 1020.4
20260830143010 48 0 0.0 0.0 0.00 0.00 0.00 96 1020.3
20260830142457 48 0 0.0 0.0 0.00 0.00 0.00 95 1020.2
20260830141944 48 0 0.0 0.0 0.00 0.00 0.00 96 1020.2
20260830141431 48 0 0.0 0.0 0.00 0.00 0.00 95 1020.1
20260830140918 48 0 0.0 0.0 0.00 0.00 0.00 95 1020.1
20260830140405 49 0 0.0 0.0 0.00 0.00 0.00 95 1020.2
20260830135852 49 0 0.0 0.0 0.00 0.04 0.00 95 1020.2
20260830135339 49 0 0.0 0.0 0.00 0.04 0.00 95 1020.2
20260830134313 49 0 0.0 0.0 0.00 0.04 0.00 95 1020.2
20260830133800 49 0 0.0 0.0 0.00 0.04 0.00 95 1020.1
20260830133247 49 0 0.0 0.0 0.00 0.04 0.00 95 1020.1
20260830132734 49 0 0.0 0.0 0.00 0.04 0.00 95 1020.1
20260830132221 49 0 0.0 0.0 0.00 0.04 0.00 95 1020.0
20260830131708 49 0 0.0 0.0 0.00 0.04 0.00 95 1020.0
20260830131155 49 0 0.0 0.0 0.00 0.04 0.00 95 1020.1
20260830130642 49 0 0.0 0.0 0.00 0.04 0.00 95 1020.0
20260830130129 49 0 0.0 0.0 0.00 0.04 0.00 95 1020.1
20260830125615 49 0 0.0 0.0 0.00 0.04 0.00 95 1020.1
20260830125103 49 0 0.0 0.0 0.00 0.04 0.00 95 1020.1
20260830124036 49 0 0.0 0.0 0.00 0.04 0.00 95 1020.0
20260830123523 50 0 0.0 0.0 0.00 0.04 0.00 95 1019.9
20260830123011 50 0 0.0 0.0 0.00 0.04 0.00 95 1019.8
20260830122457 50 0 0.0 0.0 0.00 0.04 0.00 95 1019.8
20260830121945 50 0 0.0 0.0 0.00 0.04 0.00 95 1019.8
20260830121431 50 0 0.0 0.0 0.00 0.04 0.00 95 1019.8
20260830120918 50 0 0.0 0.0 0.00 0.04 0.00 95 1019.8
20260830120405 50 0 0.0 0.0 0.00 0.04 0.00 95 1019.8
20260830115853 50 0 0.0 0.0 0.00 0.04 0.00 94 1019.8
20260830115339 50 0 0.0 0.0 0.00 0.04 0.00 95 1019.8
20260830114828 50 0 0.0 0.0 0.00 0.04 0.00 95 1019.8
20260830114313 50 0 0.0 0.0 0.00 0.04 0.00 94 1019.7
20260830113800 51 0 0.0 0.0 0.00 0.04 0.00 94 1019.7
20260830113247 51 0 0.0 0.0 0.00 0.04 0.00 94 1019.6
20260830112734 51 0 0.0 0.0 0.00 0.04 0.00 94 1019.6
20260830112222 51 0 0.0 0.0 0.00 0.04 0.00 94 1019.6
20260830111708 51 0 0.0 0.0 0.00 0.04 0.00 94 1019.6
20260830111155 51 0 0.0 0.0 0.00 0.04 0.00 94 1019.6
20260830110642 51 0 0.0 0.0 0.00 0.04 0.00 94 1019.7
20260830110129 51 0 0.0 0.0 0.00 0.04 0.00 94 1019.7
20260830105617 51 0 0.0 0.0 0.00 0.04 0.00 94 1019.7
20260830105103 51 0 0.0 0.0 0.00 0.04 0.00 94 1019.7
20260830104037 51 0 0.0 0.0 0.00 0.04 0.00 94 1019.7
20260830103524 51 0 0.0 0.0 0.00 0.04 0.00 94 1019.8
20260830103012 51 0 0.0 0.0 0.00 0.04 0.00 94 1019.7
20260830102458 51 0 0.0 0.0 0.00 0.04 0.00 93 1019.7
20260830101945 51 0 0.0 0.0 0.00 0.04 0.00 94 1019.7
20260830101432 52 0 0.0 0.0 0.00 0.04 0.00 94 1019.8
20260830100919 52 0 0.0 0.0 0.00 0.04 0.00 94 1019.8
20260830100406 52 0 0.0 0.0 0.00 0.04 0.00 94 1019.8
20260830095853 52 0 0.0 0.0 0.00 0.04 0.00 94 1019.8
20260830095340 52 0 0.0 0.0 0.00 0.04 0.00 94 1019.8
20260830094829 52 0 0.0 0.0 0.00 0.04 0.00 94 1019.8
20260830094314 52 0 0.0 0.0 0.00 0.04 0.00 94 1019.8
20260830093801 52 0 0.0 0.0 0.00 0.04 0.00 94 1019.7
20260830093248 52 0 0.0 0.0 0.00 0.04 0.00 94 1019.7
20260830092735 52 0 0.0 0.0 0.00 0.04 0.00 93 1019.8
20260830091709 52 0 0.0 0.0 0.00 0.04 0.00 93 1019.7
20260830091157 52 0 0.0 0.0 0.00 0.04 0.00 93 1019.7
20260830090643 52 0 0.0 0.0 0.00 0.04 0.00 93 1019.7
20260830090130 52 0 0.0 0.0 0.00 0.04 0.00 93 1019.7
20260830085617 52 0 0.0 0.0 0.00 0.04 0.00 93 1019.7
20260830085104 52 0 0.0 0.0 0.00 0.04 0.00 93 1019.7
20260830084551 52 0 0.0 0.0 0.00 0.04 0.00 93 1019.7
20260830084040 52 0 0.0 0.0 0.00 0.04 0.00 93 1019.8
20260830083525 52 0 0.0 0.0 0.00 0.04 0.00 93 1019.8
20260830083014 52 0 0.0 0.0 0.00 0.04 0.00 93 1019.8
20260830082459 52 0 0.0 0.0 0.00 0.04 0.00 93 1019.8
20260830081434 53 0 0.0 0.0 0.00 0.04 0.00 93 1019.8
20260830080920 52 0 0.0 0.0 0.00 0.04 0.00 93 1019.8
20260830080407 52 0 0.0 0.0 0.00 0.04 0.00 93 1019.8
20260830075854 53 0 0.0 0.0 0.00 0.04 0.00 93 1019.8
20260830075341 52 0 0.0 0.0 0.00 0.04 0.04 93 1019.8
20260830074828 53 0 0.0 0.0 0.00 0.04 0.04 92 1019.8
20260830074315 53 0 0.0 0.0 0.00 0.04 0.04 92 1019.9
20260830073802 53 0 0.0 0.0 0.00 0.04 0.04 93 1019.9
20260830073249 53 0 0.0 0.0 0.00 0.04 0.04 92 1019.8
20260830072736 53 0 0.0 0.0 0.00 0.04 0.04 92 1019.9
20260830072223 53 0 0.0 0.0 0.00 0.04 0.04 92 1019.8
20260830071710 53 0 0.0 0.0 0.00 0.04 0.04 92 1019.8
20260830071157 53 0 0.0 0.0 0.00 0.04 0.04 92 1019.8
20260830070644 53 0 0.0 0.0 0.00 0.04 0.04 92 1019.8
20260830070132 53 0 0.0 0.0 0.00 0.04 0.04 92 1019.8
20260830065618 53 0 0.0 0.0 0.00 0.04 0.04 92 1019.8
20260830065105 53 0 0.0 0.0 0.00 0.04 0.04 92 1019.8
20260830064552 53 0 0.0 0.0 0.00 0.04 0.04 92 1019.8
20260830064039 53 0 0.0 0.0 0.00 0.04 0.04 92 1019.8
20260830063526 54 0 0.0 0.0 0.00 0.04 0.04 91 1019.8
20260830063013 53 0 0.0 0.0 0.00 0.04 0.04 92 1019.8
20260830062500 53 0 0.0 0.0 0.00 0.04 0.04 91 1019.8
20260830061947 53 0 0.0 0.0 0.00 0.04 0.04 91 1019.8
20260830061434 54 0 0.0 0.0 0.00 0.04 0.04 91 1019.9
20260830060921 54 0 0.0 0.0 0.00 0.04 0.04 91 1019.9
20260830060408 54 0 0.0 0.0 0.00 0.04 0.04 91 1019.9
20260830055855 54 0 0.0 0.0 0.00 0.04 0.04 91 1020.0
20260830055342 53 0 0.0 0.0 0.00 0.04 0.04 91 1020.0
20260830054830 53 0 0.0 0.0 0.00 0.04 0.04 91 1020.0
20260830054317 54 0 0.0 0.0 0.00 0.04 0.04 90 1020.1
20260830053803 54 0 0.0 0.0 0.00 0.04 0.04 91 1020.1
20260830053250 54 0 0.0 0.0 0.00 0.04 0.04 90 1020.1
20260830052737 54 0 0.0 0.0 0.00 0.04 0.04 90 1020.2
20260830051711 54 0 0.0 0.0 0.00 0.04 0.04 90 1020.2
20260830051158 54 0 0.0 0.0 0.00 0.04 0.04 90 1020.2
20260830050645 54 0 0.0 0.0 0.00 0.04 0.04 90 1020.2
20260830050132 54 0 0.0 0.0 0.00 0.04 0.04 89 1020.2
20260830045619 55 0 0.0 0.0 0.00 0.04 0.04 89 1020.2
20260830045106 54 0 0.0 0.0 0.00 0.04 0.04 89 1020.1
20260830044553 54 0 0.0 0.0 0.00 0.04 0.04 89 1020.1
20260830044040 55 0 0.0 0.0 0.00 0.04 0.04 89 1020.1
20260830043527 55 0 0.0 0.0 0.00 0.04 0.04 88 1020.2
20260830042501 55 0 0.0 0.0 0.00 0.04 0.04 88 1020.2
20260830041948 55 0 0.0 0.0 0.00 0.04 0.04 88 1020.2
20260830040922 56 0 0.0 0.0 0.00 0.04 0.04 87 1020.2
20260830040409 56 0 0.0 0.0 0.00 0.04 0.04 87 1020.2
20260830035856 56 0 0.0 0.0 0.00 0.04 0.04 86 1020.1
20260830035343 57 0 0.0 0.0 0.00 0.04 0.04 86 1020.0
20260830034830 56 0 0.0 0.0 0.00 0.04 0.04 86 1020.0
20260830034318 57 0 0.0 0.0 0.00 0.04 0.04 85 1019.9
20260830033804 57 0 0.0 0.0 0.00 0.04 0.04 85 1019.9
20260830033251 57 0 0.0 0.0 0.00 0.04 0.04 85 1019.8
20260830032738 58 0 0.0 0.0 0.00 0.04 0.04 85 1019.8
20260830031712 58 0 0.0 3.0 0.00 0.04 0.04 84 1019.7
20260830031159 59 0 0.0 3.0 0.00 0.04 0.04 84 1019.7
20260830030646 59 0 0.0 3.0 0.00 0.04 0.04 84 1019.7
20260830030133 60 0 0.0 6.0 0.00 0.04 0.04 84 1019.7
20260830025621 60 0 0.0 6.0 0.00 0.04 0.04 83 1019.6
20260830025107 60 102 1.0 6.0 0.00 0.04 0.04 83 1019.6